Regional Weather Roundup
Issued by NWS

Home | Current Version | Previous Version | Graphics & Text | Print | Product List | Glossary On
Versions: 1 2 3 4 5 6 7 8 9 10 11 12 13 14 15 16 17 18 19 20 21 22 23 24 25 26 27 28 29 30 31 32 33 34 35 36 37 38 39 40 41 42 43 44 45 46 47 48 49 50
000
ASUS43 KOAX 270810
RWRNE

WEATHER ROUNDUP FOR NEBRASKA
NATIONAL WEATHER SERVICE OMAHA NE
300 AM CDT MON APR 27 2015

NOTES: SATELLITE DATA IS BEING USED TO AUGMENT CLOUD COVER ABOVE
       12000 FEET.
       "FAIR" INDICATES FEW OR NO CLOUDS BELOW 12,000 FEET WITH NO
       SIGNIFICANT WEATHER AND/OR OBSTRUCTIONS TO VISIBILITY.

  * THESE STATIONS DO NOT REPORT WEATHER SUCH AS RAIN...SNOW OR FOG.

NEZ001>004-019>022-054>056-270900-
NEBRASKA PANHANDLE

CITY           SKY/WX    TMP DP  RH WIND       PRES   REMARKS
SCOTTSBLUFF    CLOUDY    44  32  62 CALM      30.15F
ALLIANCE       CLOUDY    43  40  89 CALM      30.15R
CHADRON        CLOUDY    41  39  93 CALM      30.16S
KIMBALL        CLOUDY    40  40  99 CALM      30.12F FOG
SIDNEY         CLOUDY    43  40  89 E3        30.14S
$$

NEZ057>060-069>072-079>082-270900-
SOUTHWEST NEBRASKA

CITY           SKY/WX    TMP DP  RH WIND       PRES   REMARKS
IMPERIAL       CLOUDY    46  42  86 NE7       30.12S
LEXINGTON      MOCLDY    38  35  91 NW3       30.12F
MCCOOK         PTCLDY    45  41  86 NE9       30.10F
OGALLALA       CLOUDY    46  43  91 N6        30.13F
$$

NEZ005>010-023>029-035>040-094-270900-
NORTH CENTRAL NEBRASKA

CITY           SKY/WX    TMP DP  RH WIND       PRES   REMARKS
VALENTINE      PTCLDY    35  31  85 NW7       30.15S WCI  29
AINSWORTH      CLEAR     38  30  73 W3        30.15S
BROKEN BOW     PTCLDY    35  31  85 N3        30.13S
O`NEILL        CLEAR     41  33  73 CALM      30.14S
ORD            MOCLDY    35  31  85 N3        30.12R
THEDFORD       CLEAR     36  35  95 W3        30.16S
$$

NEZ041-046>049-061>064-073>077-083>087-270900-
SOUTH CENTRAL NEBRASKA

CITY           SKY/WX    TMP DP  RH WIND       PRES   REMARKS
GRAND ISLAND   CLOUDY    38  34  85 NW6       30.12R WCI  33
AURORA         MOCLDY    39  36  89 N6        30.11S WCI  35
HASTINGS       PTCLDY    38  34  85 N3        30.10S
HEBRON         CLEAR     38  34  85 CALM      30.10R
HOLDREGE       PTCLDY    39  36  88 N3        30.11S
KEARNEY *      MOCLDY    39  36  87 NW7       30.11F WCI  34
YORK           MOCLDY    39  36  87 N8        30.11R WCI  34
$$

NEZ011>018-030>034-042>045-270900-
NORTHEAST NEBRASKA

CITY           SKY/WX    TMP DP  RH WIND       PRES   REMARKS
NORFOLK        CLEAR     35  32  88 W3        30.12S
ALBION         PTCLDY    34  31  90 NW5       30.13R WCI  30
BLAIR          PTCLDY    44  33  66 N7        30.10R
COLUMBUS *     MOCLDY    41  32  70 CALM      30.13R
FREMONT        PTCLDY    41  37  85 CALM      30.11S
TEKAMAH        CLEAR     39  34  82 N10       30.11F WCI  32
WAYNE          CLEAR     34  29  83 CALM      30.14S
$$

NEZ050>053-065>068-078-088>093-270900-
SOUTHEAST NEBRASKA

CITY           SKY/WX    TMP DP  RH WIND       PRES   REMARKS
LINCOLN        MOCLDY    37  33  85 N5        30.12R WCI  33
OMAHA EPPLEY   PTCLDY    40  36  86 NW6       30.10S
BEATRICE       PTCLDY    42  34  75 NE5       30.09S
FALLS CITY     CLEAR     45  31  58 NE3       30.08R
NEBRASKA CITY  PTCLDY    46  29  51 CALM      30.10S
PLATTSMOUTH    MOCLDY    45  32  61 CALM      30.10R
$$

NEZ044-045-051>053-067-270900-
OMAHA AREA

CITY           SKY/WX    TMP DP  RH WIND       PRES   REMARKS
OMAHA EPPLEY   PTCLDY    40  36  86 NW6       30.10S
BLAIR          PTCLDY    44  33  66 N7        30.10R
FREMONT        PTCLDY    41  37  85 CALM      30.11S
MILLARD        PTCLDY    44  36  74 CALM      30.11R
OFFUTT AFB     FAIR      43  33  69 NE5       30.10R
PLATTSMOUTH    MOCLDY    45  32  61 CALM      30.10R
WAHOO          FAIR      40  34  80 NW5       30.11R
$$



USA.gov is the U.S. government's official web portal to all federal, state and local government web resources and services.